{"data":{"norad_id":62176,"intl_designator":"2024-225P","name":"STARLINK-32516","alt_names":[],"object_type":"PAYLOAD","status":"ACTIVE","operator":null,"country":"US","launch_date":"2024-11-30","launch_site_code":"AFWTR","launch_vehicle":null,"mission":null,"orbit_class":"UNKNOWN","rcs_meters":null,"size_class":null,"mass_kg":null,"dimensions":null,"purposes":["comms"],"wikipedia_slug":null,"has_3d_model":false,"image_url":null,"decayed_at":null,"tle_current":{"epoch":"2026-05-24T22:30:35.323776Z","epoch_age_seconds":77633,"freshness":"FRESH","line1":"1 62176U 24225P   26144.93790884  .00004033  00000+0  34551-3 0  9992","line2":"2 62176  70.0019 332.3105 0002325 269.7489  90.3403 14.98338470 81291","mean_motion":14.9833847,"eccentricity":0.0002325,"inclination_deg":70.0019,"raan_deg":332.3105,"arg_perigee_deg":269.7489,"mean_anomaly_deg":90.3403,"bstar":0.00034551,"rev_number":8129,"period_min":96.106455839714,"perigee_km":570.41378453414,"apogee_km":573.64561204885,"semimajor_km":6950.1666982915,"source":"CELESTRAK","updated_at":"2026-05-25T13:38:19.603280Z"}}}